TITAN 4 CENTAUR R/B, 27169

Orbit data source: Space-Track

TITAN 4 CENTAUR R/B, 27169 is space debris in GEO originally from a launch on Mon, 14 Jan 2002 UTC launched from the Air Force Eastern Test Range (AFETR). Debris objects in space refer to the collection of defunct objects orbiting the Earth. Examples of debris include non-operational satellites, rocket bodies, and fragments generated from explosions, collisions, or faulty payload assembly.

Loading next visibility...
Identifier
27169, 2002-001B
Orbit
GEO
Country
Flag of USUS
Related business
Manufacturer
LMA
Mission
Spacecraft
Bus & Motor
CENTAUR T, RL-10 X2
Mass
~1,840 kg wet, ~1,840 kg dry
Launch date (UTC)
2002-01-14 (24 years ago)
Launch vehicle
Unknown
Launch site
Air Force Eastern Test Range (AFETR)
Object type
Payload
Rocket body
Debris
Shape & HBR
Cyl, 4.5 m
Radar Cross Section
37.970 m²

Expand to show TLE details & history
Last TLE update: 15 hours ago

TLE from 15 hours ago
0 TITAN 4 CENTAUR R/B
1 27169U 02001B   26038.07645268  .00000076  00000-0  00000-0 0  9998
2 27169   9.9743  30.6349 0049068 133.9831 226.4884  1.00156118 25070
Epoch: 2026-02-07T01:50Z
TLE epoch observation values (Epoch: 2026-02-07T01:50:05.511Z)
Latitude
-0°
Longitude
-134.01381°
Altitude
35,961.516 km
Speed
3.063 km/s
True Right ascension
02h 02m 51s
True Declination
0° 00' 00"
Sunlit
Object was in daylight at epoch
Visualization orbit readout
Latitude
Unknown
Longitude
Unknown
Altitude
Unknown
Speed
Unknown
Apparent Right ascension
Unknown
Apparent Declination
Unknown
Sunlit
N/A
Visualization observer readout
Local Sidereal Time
18:51:16
Azimuth
Unknown
Elevation
Unknown
Doppler factor
Unknown
Orbital elements
Apogee altitude
36,027.133 km
Perigee altitude
35,613.016 km
Semi-major axis
42,198.211 km
Eccentricity
0.00491
Inclination
9.9743°
RAAN
30.6349°
Arg. of periapsis
133.9831°
True anomaly
226.08233°
Mean anomaly
226.4884°
Eccentric anomaly
226.2852°
Mean motion
0.25038 °/min
Orbital period
1,437.81 mins
BSTAR
0
Loading maneuver chart data...
Computing Atmospheric mass density...
Loading historical data...
Loading historical data...
Loading historical data...
Loading historical data...
Loading historical data...
Loading historical data...
Loading historical data...
Other satellites on launch #1 in the year 2002 (2002-01-14 UTC)

Documentation

Showing up to 5 results
|